This is the latest recevied weather packets stored in our database for station/object LX0APE-4. If no packets are shown the sender has not sent any weather packets the latest 10 day(s).
| Time | Temp. | Humidity | Pressure | Rain* | Wind** | Luminosity | Snow |
|---|---|---|---|---|---|---|---|
| 1777219033 | 31.11° C | 15% | 5018.3 hPa | 0 mm | - | - | - |
| 1777218733 | 31.11° C | 15% | 5018.4 hPa | 0 mm | - | - | - |
| 1777218433 | 30.56° C | 16% | 5018.4 hPa | 0 mm | - | - | - |
| 1777218133 | 29.44° C | 16% | 5018.3 hPa | 0 mm | - | - | - |
| 1777217833 | 29.44° C | 15% | 5018.4 hPa | 0 mm | - | - | - |
| 1777217533 | 30.56° C | 16% | 5018.3 hPa | 0 mm | - | - | - |
| 1777217233 | 31.11° C | 15% | 5018.3 hPa | 0 mm | - | - | - |
| 1777216933 | 31.11° C | 15% | 5018.4 hPa | 0 mm | - | - | - |
| 1777216633 | 31.11° C | 16% | 5018.3 hPa | 0 mm | - | - | - |
| 1777216333 | 30° C | 16% | 5018.5 hPa | 0 mm | - | - | - |
| 1777216033 | 30° C | 16% | 5018.5 hPa | 0 mm | - | - | - |
| 1777215733 | 30° C | 16% | 5018.5 hPa | 0 mm | - | - | - |
| 1777215433 | 30° C | 17% | 5018.3 hPa | 0 mm | - | - | - |
| 1777215133 | 29.44° C | 16% | 5018.4 hPa | 0 mm | - | - | - |
| 1777214833 | 30° C | 16% | 5018.5 hPa | 0 mm | - | - | - |
| 1777214533 | 30.56° C | 15% | 5018.5 hPa | 0 mm | - | - | - |
| 1777214233 | 30° C | 16% | 5018.4 hPa | 0 mm | - | - | - |
| 1777213933 | 31.11° C | 16% | 5018.5 hPa | 0 mm | - | - | - |
| 1777213633 | 30.56° C | 16% | 5018.6 hPa | 0 mm | - | - | - |
| 1777213333 | 30° C | 17% | 5018.5 hPa | 0 mm | - | - | - |
| 1777213033 | 29.44° C | 16% | 5018.5 hPa | 0 mm | - | - | - |
| 1777212733 | 29.44° C | 16% | 5018.6 hPa | 0 mm | - | - | - |
| 1777212438 | 29.44° C | 16% | 5018.7 hPa | 0 mm | - | - | - |
| 1777212433 | 29.44° C | 16% | 5018.7 hPa | 0 mm | - | - | - |
| 1777212133 | 30° C | 16% | 5018.6 hPa | 0 mm | - | - | - |
* Rain latest hour (hover to see other rain measurements)
** Current wind speed in m/s (hover to see current wind gust speed)